Simultaneous Nadir Overpasses (SNOs) Predictions

Prediction of SNOs between LANDSAT-8 and NOAA-19 Satellite Orbit:

Table of predicted SNOs for the next 14.0 days since TLE Epoch: 1/11/2014
Index Date (LANDSAT-8) Time (LANDSAT-8) Lat,Lon (LANDSAT-8) SZA (LANDSAT-8 ) Date (NOAA-19) Time (NOAA-19) Lat,Lon (NOAA-19) SZA (NOAA-19 ) Distance(km) Time Diff (sec)
1 01/11/2014 23:46:36 71.41,-178.07 93.03 01/11/2014 23:46:07 71.44,-178.02 93.06 3.12 29
2 01/12/2014 00:36:05 -71.35, -10.54 87.04 01/12/2014 00:37:02 -71.37, -10.63 87.03 3.52 57
3 01/14/2014 04:30:50 71.45, 110.92 92.70 01/14/2014 04:30:12 71.44, 110.97 92.70 2.15 38
4 01/14/2014 05:20:20 -71.33, -81.64 87.43 01/14/2014 05:21:06 -71.33, -81.57 87.43 2.66 46
5 01/16/2014 09:15:04 71.47, 39.89 92.32 01/16/2014 09:14:17 71.45, 39.95 92.31 3.13 47
6 01/16/2014 10:04:34 -71.35,-152.67 87.81 01/16/2014 10:05:11 -71.36,-152.61 87.80 2.38 37
7 01/18/2014 13:59:18 71.47, -31.17 91.89 01/18/2014 13:58:22 71.47, -31.08 91.89 3.25 56
8 01/18/2014 14:48:47 -71.41, 136.36 88.18 01/18/2014 14:49:16 -71.38, 136.35 88.21 3.24 29
9 01/20/2014 18:43:31 71.52,-102.16 91.47 01/20/2014 18:42:27 71.50,-102.13 91.46 2.79 64
10 01/20/2014 19:33:01 -71.40, 65.28 88.65 01/20/2014 19:33:21 -71.42, 65.29 88.64 1.43 20
11 01/22/2014 23:27:44 71.55,-173.17 91.01 01/22/2014 23:26:32 71.53,-173.19 91.00 1.97 72
12 01/23/2014 00:17:14 -71.43, -5.73 89.12 01/23/2014 00:17:26 -71.45, -5.77 89.10 2.71 12
13 01/25/2014 04:11:54 71.72, 116.06 90.65 01/25/2014 04:10:42 71.83, 115.26 90.79 30.14 72
14 01/25/2014 05:01:27 -71.45, -76.77 89.63 01/25/2014 05:01:30 -71.44, -76.75 89.63 0.66 3




NCC Satellite Simultaneous Nadir Overpasses (SNOs) Prediction Service
